Temperature
17 17 18 18 17 17 17 17 17 17 17 17 17 17 17 17 17 17 17 17 17 17 17 16 16 16 16 16 16 16 15 15 15 15 15 15 14 14 14 14 14 14 13
17 17 18 18 17 17 17 17 17 17 17 17 17 17 17 17 17 17 17 17 17 17 16 16 16 16 16 16 16 16 15 15 15 15 15 15 14 14 14 13 14 13 13
17 17 17 17 17 17 17 17 17 17 17 17 17 17 17 17 17 17 17 17 16 16 16 16 16 16 16 16 16 15 15 15 15 15 14 14 14 14 14 13 13 13 13
17 17 17 17 17 17 17 17 17 17 17 17 17 17 17 17 17 17 16 16 16 16 16 16 16 16 16 16 16 15 15 15 15 14 14 14 14 14 13 13 13 13 13
16 16 17 17 17 17 17 17 17 17 17 17 17 17 16 16 16 16 16 16 16 16 16 16 16 16 16 16 15 15 15 15 14 14 14 14 14 13 13 13 13 13 13
16 16 16 16 16 17 17 17 17 17 17 17 16 16 16 16 16 16 16 16 16 16 16 15 15 15 16 16 15 15 15 14 14 14 14 14 13 13 13 13 13 13 12
16 16 16 16 16 16 16 16 16 17 17 17 16 16 16 16 16 16 16 16 16 15 15 15 15 15 15 15 15 15 15 14 14 14 14 13 13 13 13 13 13 12 12
16 15 15 15 15 16 16 16 16 16 16 16 16 16 16 16 16 16 15 15 15 15 15 15 15 15 15 15 15 15 15 14 14 14 13 13 13 13 13 13 13 12 12
15 15 15 15 15 15 15 15 15 15 16 16 16 16 16 16 15 15 15 15 15 15 15 15 15 15 15 15 15 15 14 14 14 13 13 13 13 13 13 13 12 12 12
15 14 14 14 14 14 14 15 15 15 15 15 15 15 15 15 15 15 15 15 15 15 15 15 15 15 14 14 14 14 14 14 13 13 13 13 13 12 12 12 12 12 12
14 14 14 14 14 14 14 14 14 14 14 14 14 14 15 15 15 15 15 14 14 14 14 14 14 14 14 14 14 14 14 14 13 13 13 13 13 12 12 12 12 12 12
14 14 14 13 14 14 14 14 14 14 14 14 14 14 14 14 14 14 14 14 14 14 14 14 14 14 14 14 14 13 13 13 13 13 13 13 13 12 12 12 12 12 12
13 13 13 13 13 13 13 13 13 13 14 14 14 13 14 13 14 13 13 13 13 13 13 13 13 13 13 13 13 13 13 13 13 13 13 12 12 12 12 12 12 12 11
13 13 12 12 12 12 12 13 13 13 13 13 13 13 13 13 13 13 13 13 13 13 13 13 13 13 13 13 13 13 13 13 13 12 12 12 12 12 12 12 12 11 11
13 12 12 12 12 12 12 12 12 12 12 13 13 13 13 13 13 13 13 13 12 12 12 12 12 12 12 12 12 12 12 12 12 12 12 12 12 12 12 12 12 11 11
12 12 12 12 12 11 11 11 11 12 12 12 12 12 12 12 12 12 12 12 12 12 12 12 12 12 12 12 12 12 12 12 12 12 12 12 12 12 12 12 12 11 11
12 12 12 11 11 11 11 11 11 11 11 11 11 12 12 12 12 12 12 11 11 11 11 11 11 11 11 11 11 11 11 11 11 11 11 11 12 12 12 12 12 11 11
12 12 11 11 11 11 10 10 10 11 11 11 11 11 11 11 11 11 11 11 11 11 11 11 11 11 11 11 11 11 11 11 11 11 11 11 11 11 12 12 11 11 11
11 11 11 11 11 10 10 10 10 10 10 10 10 11 11 11 11 11 10 10 10 10 10 10 10 10 10 10 10 10 11 11 11 11 11 11 11 11 11 11 11 11 11
11 11 10 10 10 10 10 9 9 9 10 10 10 10 10 10 10 10 10 10 10 10 10 10 10 10 10 10 10 10 10 10 10 11 11 11 11 11 11 11 11 11 11
10 10 10 10 10 9 9 9 9 9 9 9 10 10 10 10 10 10 10 9 9 9 10 10 10 10 10 10 9 10 10 10 10 10 11 11 11 11 11 11 11 11 11
10 10 9 9 9 9 9 9 9 9 9 9 9 9 9 9 9 9 9 9 9 9 9 9 9 9 9 9 9 9 9 9 10 10 10 10 10 11 11 11 11 11 11
10 9 9 9 9 8 8 8 8 8 8 8 9 9 9 9 9 9 9 9 9 9 9 9 9 9 9 9 9 9 9 9 9 10 10 10 10 10 10 10 11 11 11
9 9 9 8 8 8 8 8 8 8 8 8 8 8 9 9 9 9 9 9 9 9 9 9 9 9 9 9 9 9 9 9 9 9 9 10 10 10 10 10 10 10 10
9 9 8 8 8 8 8 8 8 8 8 8 8 8 8 8 8 9 8 8 8 8 9 9 9 9 9 9 8 9 9 9 9 9 9 9 9 9 10 10 10 10 10
9 8 8 8 8 8 7 7 7 7 7 7 8 8 8 8 8 8 8 8 8 8 8 8 8 9 8 8 8 8 8 9 9 9 9 9 9 9 9 9 9 9 10
Wind_Speed
4 8 9 7 6 6 7 7 7 6 6 7 7 7 7 7 7 8 8 9 9 9 10 10 11 10 11 10 11 11 11 11 11 11 11 11 11 10 10 10 11 10 12
5 9 11 8 6 6 6 6 6 6 6 6 6 6 6 7 7 7 8 8 9 9 9 10 10 10 10 10 11 11 11 10 10 10 10 10 10 9 10 10 10 10 11
6 9 10 8 7 5 5 5 5 5 5 5 5 5 6 6 7 7 7 8 8 9 9 9 9 10 10 10 11 11 10 10 9 9 9 8 9 9 10 10 10 11 11
7 9 9 8 6 5 4 4 4 4 5 4 4 5 5 6 6 7 7 8 8 9 9 9 9 10 10 10 11 10 10 9 9 7 7 8 8 10 10 10 9 10 10
6 8 9 8 6 5 4 3 3 3 3 4 4 5 5 5 6 6 7 8 8 8 8 8 9 10 10 10 10 10 10 9 8 6 6 8 9 10 10 10 9 10 9
5 7 7 8 5 4 3 3 2 2 3 3 4 4 5 5 5 6 7 8 8 8 8 8 9 9 10 10 10 10 9 8 7 6 7 8 9 10 10 10 9 9 8
4 5 5 6 4 3 2 1 2 2 3 3 3 4 5 5 5 6 6 7 8 8 8 8 9 9 10 10 10 9 8 8 6 5 7 8 9 10 10 9 9 8 8
3 4 4 4 3 2 1 1 2 3 3 3 4 5 5 5 5 6 7 8 8 9 9 8 9 9 10 11 10 9 7 7 6 6 7 9 10 10 9 9 8 8 7
3 3 2 2 2 1 1 1 2 4 4 4 5 5 6 6 6 6 7 8 9 10 9 9 10 10 10 11 10 9 8 7 5 5 7 8 10 11 9 9 8 8 7
1 1 1 1 2 1 0 1 2 4 6 6 6 6 6 7 7 7 7 9 10 10 10 10 10 10 10 10 10 10 9 8 6 5 6 8 11 11 10 9 8 8 8
1 1 1 0 1 1 1 2 3 4 6 7 7 7 6 5 6 6 8 8 9 10 11 10 10 10 10 10 11 11 9 7 7 5 7 10 12 12 11 10 9 9 8
2 1 1 1 0 0 1 1 2 3 4 5 5 5 5 4 5 6 7 9 9 10 11 11 11 11 10 8 9 10 8 8 6 6 8 12 12 12 12 11 10 10 9
2 1 1 2 2 1 1 1 1 2 3 3 4 5 5 4 4 4 5 6 8 8 8 9 9 9 8 8 7 8 8 7 6 6 9 13 13 13 13 12 11 11 10
2 2 2 2 3 3 2 2 2 2 3 3 4 5 4 3 3 3 4 5 5 6 6 6 6 8 8 8 8 8 8 6 5 6 9 12 14 14 14 13 13 12 12
3 3 3 3 3 3 3 3 2 3 3 4 3 5 5 4 4 4 4 4 5 6 6 5 6 7 6 7 7 7 7 6 6 7 9 13 13 14 15 15 14 14 13
4 4 3 3 3 3 3 3 3 3 3 4 4 5 5 4 4 4 4 4 4 6 6 6 6 5 5 5 6 7 7 7 7 7 9 11 13 14 16 16 15 15 15
3 3 3 3 4 3 3 4 4 3 4 4 5 6 5 5 5 5 4 4 4 5 6 5 5 5 5 5 6 6 5 6 6 7 8 10 12 14 16 17 17 16 16
3 3 3 3 4 4 4 4 4 4 4 4 4 5 6 6 6 5 4 5 5 5 4 4 5 5 5 5 5 5 5 5 6 6 7 9 10 11 13 16 17 17 17
4 4 4 4 5 5 4 4 4 4 4 4 4 4 5 6 7 6 5 5 5 4 4 5 5 4 4 5 5 5 5 5 6 6 6 8 9 10 11 14 16 17 17
4 4 4 4 5 5 4 4 3 4 4 4 4 5 5 5 6 5 5 6 5 4 4 5 5 5 4 4 4 5 5 5 6 6 7 7 8 10 11 12 12 14 17
4 4 4 4 4 4 4 4 4 5 4 5 6 7 6 6 7 6 5 6 6 6 6 6 5 6 5 4 3 3 4 5 7 6 6 6 7 9 10 11 11 11 12
4 4 4 4 4 4 4 4 4 4 4 5 5 6 6 6 7 7 7 6 6 6 7 7 6 5 4 5 4 2 3 4 5 7 6 7 8 6 8 11 11 11 11
4 4 4 5 5 5 5 4 4 3 3 5 5 6 6 7 7 7 8 7 7 7 7 8 7 7 6 6 5 4 4 4 3 3 6 7 7 7 7 7 9 11 12
4 3 3 4 5 5 4 5 7 6 6 6 5 5 6 6 7 7 7 8 8 7 8 8 8 6 7 7 6 6 5 3 3 2 3 5 6 7 7 7 7 9 11
3 2 3 4 5 5 5 6 7 6 6 5 5 6 7 7 8 8 8 8 8 8 8 8 8 8 7 7 7 5 5 4 4 3 5 5 5 6 6 7 6 7 9
2 2 3 4 5 5 5 6 7 7 7 6 7 6 6 6 6 8 8 7 7 7 8 9 9 9 8 7 7 6 6 5 5 5 5 6 6 5 6 6 6 7 8
Wind_Direction
76 97 95 89 85 93 101 107 113 115 117 125 136 143 141 141 142 142 139 136 139 141 142 139 138 138 133 127 119 114 112 107 105 104 104 103 104 105 103 104 100 93 96
91 95 96 90 84 88 101 109 113 115 116 123 132 147 150 150 150 149 151 149 146 147 150 149 148 146 141 137 130 126 123 119 116 113 110 109 111 108 104 104 104 100 100
87 94 100 86 79 82 96 105 114 117 119 124 133 141 153 159 160 159 158 159 157 152 146 147 149 149 146 143 139 136 134 134 132 131 127 123 119 115 109 106 105 105 102
80 87 95 95 81 79 93 105 115 124 128 133 143 146 152 164 168 167 165 162 157 154 151 145 143 144 148 148 145 144 147 149 150 151 145 136 128 124 121 117 113 110 104
77 83 91 102 94 83 89 107 113 123 140 147 153 153 157 169 174 173 170 165 160 158 155 154 152 149 146 147 151 154 159 162 165 170 135 125 124 133 131 124 120 116 110
76 78 90 100 99 97 89 104 119 138 141 150 161 167 169 169 170 173 174 170 165 161 160 161 160 158 155 152 154 162 171 176 175 168 140 131 133 140 137 132 129 124 118
71 78 94 101 93 98 107 138 144 163 174 165 172 181 179 180 180 182 182 176 172 168 167 168 168 169 165 161 162 169 179 189 190 156 137 135 140 148 146 143 141 137 131
78 84 100 106 111 104 100 175 198 188 190 189 186 192 191 192 195 192 189 184 180 176 175 179 177 175 175 171 172 180 189 198 197 165 143 142 150 155 157 153 152 151 145
58 77 85 109 118 131 158 194 225 210 201 199 197 197 198 201 203 202 197 191 188 183 181 184 184 182 181 180 181 188 198 209 215 170 158 153 161 166 168 164 162 162 160
37 77 117 68 57 56 350 254 238 224 208 206 203 199 199 201 203 204 202 196 193 190 186 188 186 185 183 186 189 194 200 212 221 184 155 159 169 176 178 176 175 174 170
258 165 147 150 49 28 304 275 246 230 217 210 202 195 194 198 196 198 200 197 199 197 193 190 188 187 185 189 193 196 199 212 209 177 160 170 177 185 188 187 185 182 180
259 237 164 162 193 308 320 305 265 242 227 216 200 189 193 198 199 202 198 194 199 199 196 193 193 187 181 184 192 195 203 215 201 172 169 176 185 191 194 194 193 191 189
249 278 249 187 195 207 218 270 275 257 234 232 211 202 206 191 190 183 176 183 190 194 190 189 186 188 189 184 186 197 211 214 194 176 174 180 190 196 198 200 201 198 198
243 252 251 216 199 202 211 226 252 243 224 218 223 209 201 188 185 179 180 182 184 187 186 181 188 200 198 190 192 204 210 205 188 173 175 183 193 201 204 206 205 206 206
238 235 242 237 213 203 208 223 241 242 241 224 218 216 201 194 192 188 191 190 194 191 188 196 202 201 202 200 201 205 207 209 196 178 178 186 194 204 210 212 212 213 213
243 236 233 238 227 215 212 220 229 235 233 234 222 222 211 196 193 191 197 198 205 197 191 199 206 204 206 205 210 209 206 207 202 186 178 188 197 205 213 216 217 218 219
252 242 239 250 232 228 227 231 235 237 231 228 227 220 215 205 195 192 197 200 203 196 196 202 205 203 209 207 213 215 212 212 203 193 186 185 196 206 215 220 221 222 224
260 246 236 258 253 244 242 239 234 237 238 230 230 224 214 210 196 191 201 207 203 193 204 210 206 205 207 205 211 219 218 215 213 204 198 192 191 200 212 219 223 226 228
262 258 246 238 248 245 242 243 242 234 236 234 234 224 217 217 203 193 202 209 202 202 209 216 209 203 208 210 214 219 217 216 220 218 210 203 199 199 202 214 220 225 230
262 260 253 242 246 250 245 246 249 244 235 228 226 225 222 222 212 199 206 208 204 204 212 210 208 207 211 208 225 230 223 221 220 219 217 215 208 206 206 209 214 222 228
260 263 260 255 255 255 240 234 235 242 238 229 222 221 215 220 214 206 213 209 208 208 211 211 214 206 211 200 212 242 252 237 228 223 216 216 216 213 210 210 211 215 223
263 263 258 257 260 256 244 240 231 238 237 233 225 222 214 212 211 214 208 210 214 211 211 214 212 210 212 197 192 203 237 250 241 229 217 216 218 215 215 215 213 215 216
269 259 259 254 255 251 251 257 256 246 240 234 227 222 219 213 215 212 214 215 215 211 212 213 212 211 208 209 199 197 202 220 241 231 225 220 217 217 218 216 216 217 215
279 265 252 258 252 247 243 243 242 240 240 237 228 221 220 216 218 213 215 219 217 215 215 217 215 212 204 211 215 223 227 214 217 236 239 223 219 222 221 221 217 216 214
282 256 244 261 258 248 245 241 241 244 245 240 235 225 224 222 221 217 217 221 218 217 219 219 214 213 212 214 217 219 234 237 231 222 242 234 236 229 221 219 218 215 213
306 280 259 264 262 257 247 243 244 247 247 242 241 231 225 224 222 219 221 221 221 219 217 218 216 214 217 219 222 218 215 215 215 218 228 226 234 236 222 218 215 214 214
Height
1483 1482 1482 1483 1484 1485 1487 1489 1490 1492 1493 1495 1496 1498 1499 1500 1501 1502 1503 1505 1506 1507 1507 1508 1509 1510 1511 1512 1513 1513 1514 1515 1515 1515 1516 1516 1516 1516 1517 1517 1518 1518 1519
1483 1482 1482 1483 1484 1486 1487 1489 1490 1492 1493 1495 1496 1497 1499 1500 1501 1502 1504 1505 1506 1506 1507 1508 1509 1510 1511 1512 1512 1513 1514 1515 1515 1516 1516 1516 1517 1517 1518 1518 1519 1519 1519
1482 1481 1482 1483 1484 1485 1487 1489 1490 1492 1493 1494 1496 1497 1498 1499 1501 1502 1503 1504 1505 1506 1507 1508 1509 1510 1511 1512 1512 1513 1514 1515 1516 1516 1516 1517 1517 1518 1518 1519 1519 1520 1520
1481 1481 1482 1483 1484 1485 1487 1488 1490 1491 1492 1494 1495 1496 1497 1499 1500 1501 1502 1504 1505 1506 1507 1508 1509 1509 1510 1511 1512 1513 1514 1515 1516 1516 1517 1517 1517 1518 1518 1519 1520 1520 1520
1481 1481 1481 1482 1483 1484 1486 1487 1489 1490 1491 1493 1494 1495 1496 1497 1499 1500 1502 1503 1504 1505 1506 1507 1508 1509 1510 1511 1512 1513 1514 1515 1515 1516 1517 1517 1518 1518 1519 1519 1520 1520 1520
1480 1480 1480 1481 1482 1483 1484 1486 1487 1489 1490 1491 1492 1493 1495 1496 1497 1499 1500 1501 1503 1504 1505 1506 1507 1508 1509 1510 1511 1512 1513 1514 1515 1516 1516 1517 1517 1518 1518 1519 1520 1520 1520
1479 1479 1479 1480 1481 1482 1483 1484 1486 1487 1488 1489 1491 1492 1493 1494 1496 1497 1498 1500 1501 1502 1503 1504 1505 1506 1507 1508 1510 1511 1512 1513 1514 1515 1515 1516 1517 1518 1518 1519 1519 1520 1520
1477 1477 1478 1478 1479 1480 1481 1482 1484 1485 1486 1487 1488 1490 1491 1492 1494 1495 1496 1497 1499 1500 1501 1502 1504 1505 1506 1507 1508 1509 1511 1512 1513 1513 1514 1515 1516 1517 1517 1518 1518 1519 1519
1476 1476 1476 1477 1477 1478 1479 1480 1481 1482 1483 1484 1486 1487 1488 1490 1491 1493 1494 1495 1496 1498 1499 1500 1501 1502 1504 1505 1506 1508 1509 1510 1511 1512 1513 1513 1514 1515 1516 1516 1517 1518 1518
1473 1474 1474 1475 1475 1475 1476 1477 1478 1480 1481 1482 1483 1484 1485 1487 1488 1489 1491 1492 1494 1495 1496 1497 1499 1500 1501 1503 1504 1505 1507 1508 1509 1510 1511 1512 1513 1514 1515 1515 1516 1517 1517
1471 1472 1472 1472 1473 1473 1474 1475 1476 1477 1478 1479 1480 1481 1482 1484 1485 1486 1488 1489 1491 1492 1494 1495 1496 1497 1498 1500 1501 1503 1504 1505 1507 1508 1509 1510 1511 1512 1513 1513 1514 1515 1516
1469 1469 1469 1469 1470 1470 1471 1471 1472 1473 1475 1476 1477 1478 1479 1480 1481 1483 1484 1486 1487 1489 1490 1492 1493 1494 1495 1497 1498 1500 1501 1502 1504 1505 1506 1508 1509 1510 1511 1512 1512 1513 1514
1466 1466 1466 1466 1467 1467 1467 1468 1469 1469 1471 1472 1473 1474 1475 1477 1478 1479 1481 1482 1484 1485 1487 1488 1490 1491 1492 1493 1495 1496 1498 1500 1501 1502 1503 1505 1506 1507 1508 1509 1510 1511 1511
1463 1463 1463 1463 1463 1463 1464 1464 1465 1466 1467 1468 1469 1470 1472 1472 1474 1475 1477 1478 1480 1482 1483 1484 1486 1487 1489 1490 1492 1493 1495 1496 1497 1499 1500 1501 1503 1504 1505 1506 1507 1508 1509
1459 1459 1459 1459 1459 1460 1460 1460 1461 1461 1462 1463 1464 1466 1467 1468 1469 1471 1473 1474 1476 1478 1479 1481 1482 1484 1485 1487 1488 1490 1491 1493 1494 1495 1496 1497 1499 1501 1502 1503 1504 1505 1506
1455 1455 1455 1456 1456 1456 1456 1456 1456 1457 1458 1459 1460 1461 1463 1464 1465 1467 1469 1470 1472 1474 1475 1477 1478 1480 1482 1483 1485 1486 1488 1489 1490 1491 1492 1494 1495 1496 1498 1499 1500 1501 1502
1451 1451 1451 1451 1451 1451 1451 1452 1452 1453 1454 1454 1455 1456 1458 1459 1461 1462 1464 1466 1468 1470 1471 1473 1474 1476 1478 1479 1481 1482 1484 1485 1486 1487 1488 1489 1491 1492 1494 1495 1496 1497 1498
1447 1447 1447 1447 1447 1447 1447 1447 1447 1448 1449 1449 1450 1451 1452 1455 1456 1457 1459 1461 1463 1465 1467 1468 1470 1471 1473 1475 1476 1478 1480 1481 1482 1483 1484 1485 1486 1487 1489 1491 1492 1493 1494
1443 1443 1442 1442 1442 1442 1442 1442 1443 1443 1444 1445 1446 1446 1447 1449 1451 1453 1454 1456 1459 1460 1462 1464 1465 1467 1468 1470 1472 1473 1475 1476 1477 1478 1479 1480 1482 1483 1484 1486 1487 1488 1490
1438 1438 1438 1438 1438 1437 1437 1437 1437 1438 1439 1440 1441 1442 1442 1444 1447 1448 1450 1452 1454 1455 1457 1459 1461 1462 1464 1466 1467 1469 1470 1471 1472 1473 1474 1475 1476 1478 1479 1480 1481 1483 1484
1434 1434 1433 1433 1432 1432 1431 1431 1431 1432 1433 1434 1436 1437 1437 1439 1441 1443 1445 1447 1448 1450 1452 1454 1456 1457 1459 1462 1464 1464 1465 1467 1467 1468 1469 1470 1471 1472 1473 1475 1476 1477 1479
1430 1429 1429 1428 1428 1427 1427 1427 1427 1427 1428 1429 1430 1432 1432 1434 1436 1438 1440 1441 1443 1445 1447 1449 1450 1452 1454 1457 1458 1459 1460 1462 1461 1462 1463 1464 1465 1467 1468 1469 1470 1471 1473
1426 1425 1424 1424 1423 1423 1423 1423 1422 1422 1423 1424 1425 1426 1427 1428 1430 1432 1434 1436 1437 1439 1440 1443 1444 1446 1448 1451 1453 1455 1455 1454 1456 1457 1458 1459 1460 1461 1462 1463 1465 1466 1467
1421 1421 1420 1420 1419 1419 1419 1418 1418 1417 1418 1418 1418 1419 1421 1423 1425 1426 1428 1430 1431 1433 1434 1437 1439 1441 1443 1444 1447 1450 1451 1450 1452 1451 1452 1454 1455 1456 1457 1458 1459 1460 1462
1417 1416 1416 1416 1415 1414 1414 1414 1413 1413 1413 1413 1414 1414 1416 1417 1419 1421 1422 1423 1424 1426 1428 1431 1432 1434 1437 1438 1440 1443 1444 1445 1446 1446 1446 1448 1450 1450 1452 1453 1454 1455 1456
1414 1413 1412 1411 1410 1410 1409 1409 1409 1409 1408 1409 1408 1409 1410 1411 1413 1414 1416 1417 1418 1420 1422 1424 1426 1428 1430 1432 1435 1436 1438 1439 1439 1441 1442 1442 1444 1445 1446 1448 1449 1450 1451